Regional Weather Roundup
Issued by NWS

Home | Current Version | Previous Version | Graphics & Text | Print | Product List | Glossary On
Versions: 1 2 3 4 5 6 7 8 9 10 11 12 13 14 15 16 17 18 19 20 21 22 23 24 25 26 27 28 29 30 31 32 33 34 35 36 37 38 39 40 41 42 43 44 45 46 47 48 49 50
000
ASUS43 KMKX 281611
RWRWI

WISCONSIN REGIONAL WEATHER ROUNDUP
NATIONAL WEATHER SERVICE MILWAUKEE/SULLIVAN WI
1100 AM CDT SUN MAY 28 2017

NOTE: "FAIR" INDICATES FEW OR NO CLOUDS BELOW 12,000 FEET WITH NO
SIGNIFICANT WEATHER AND/OR OBSTRUCTIONS TO VISIBILITY.

WIZ001-002-006>008-014>016-023>028-281700-
NORTHWEST WISCONSIN

CITY           SKY/WX    TMP DP  RH WIND       PRES   REMARKS
SUPERIOR ARPT  NOT AVBL
ASHLAND        RAIN      55  53  93 W7        29.67S FOG
HAYWARD        CLOUDY    60  53  77 S6        29.67F
SIREN          MOSUNNY   63  46  55 W12G23    29.69F
CUMBERLAND     PTSUNNY   61  45  55 W15       29.70S
RICE LAKE      MOSUNNY   64  46  52 W14       29.71S
CHETEK         PTSUNNY   64  49  57 W8G21     29.70S
LADYSMITH      PTSUNNY   64  53  66 SW12G17   29.70F
EAU CLAIRE     MOSUNNY   68  50  52 W14G21    29.69F
MENOMONIE      MOSUNNY   65  47  51 W16       29.71S
NEW RICHMOND   PTSUNNY   62  44  52 W15       29.73R
OSCEOLA        MOSUNNY   63  47  54 W17G23    29.75S
$$

WIZ003>005-009-010-017-018-281700-
NORTH CENTRAL WISCONSIN

CITY           SKY/WX    TMP DP  RH WIND       PRES   REMARKS
MANITOWISH WTR CLOUDY    64  50  61 SE9       29.67F
ARBOR VITAE    MOSUNNY   65  50  58 SE9       29.67F
WOODRUFF       MOSUNNY   65  50  58 SE9       29.67F
RHINELANDER    SUNNY     66  50  56 MISG      29.71F
EAGLE RIVER    MOSUNNY   64  49  58 S10       29.69F
LAND O LAKES   SUNNY     65  50  58 SE8       29.71F
PHILLIPS       PTSUNNY   66  51  60 S13G18    29.66F
TOMAHAWK       SUNNY     66  52  59 S5        29.70F
MEDFORD        SUNNY     65  51  61 S12       29.70F
MERRILL        SUNNY     65  51  58 SW10      29.71F
$$

WIZ029-030-035-036-043>047-281700-
CENTRAL WISCONSIN

CITY           SKY/WX    TMP DP  RH WIND       PRES   REMARKS
WAUSAU         SUNNY     66  52  60 S9        29.70F
MOSINEE        MOSUNNY   64  52  63 S5        29.73F
MARSHFIELD     SUNNY     66  52  60 SW13      29.71F
STEVENS POINT  SUNNY     64  50  62 SE6       29.74F
WAUPACA        SUNNY     67  53  60 CALM      29.75F
WAUTOMA        MOSUNNY   66  57  72 S8        29.75F
WISC RAPIDS    SUNNY     68  53  58 VRB6      29.74F
CAMP DOUGLAS   SUNNY     69  51  52 SE7       29.73F
$$

WIZ011>013-019>022-031-037>040-048>050-281700-
NORTHEAST WISCONSIN

CITY           SKY/WX    TMP DP  RH WIND       PRES   REMARKS
ANTIGO         SUNNY     62  51  66 SW3       29.72F
SHAWANO        MOSUNNY   65  55  70 NE3       29.74F
OCONTO         CLOUDY    57  56  95 CALM      29.74S
STURGEON BAY   LGT RAIN  56  55  97 CALM      29.73F
GREEN BAY      CLOUDY    58  58 100 SW3       29.74F
MANITOWOC      RAIN      58  55  90 VRB3      29.74F
APPLETON       PTSUNNY   57  55  94 VRB3      29.75S
CLINTONVILLE   SUNNY     64  52  63 S5        29.74S
OSHKOSH        CLOUDY    60  57  89 VRB5      29.75F
$$

WIZ032>034-041-042-053>061-281700-
SOUTHWEST WISCONSIN

CITY           SKY/WX    TMP DP  RH WIND       PRES   REMARKS
LA CROSSE      SUNNY     72  55  55 W12       29.72F
SPARTA         MOSUNNY   70  52  52 SW7       29.73F
VIROQUA        SUNNY     69  50  50 SW16      29.76F
BOSCOBEL       SUNNY     71  53  52 SW6       29.76F
PRAIRIE DU CHI SUNNY     72  50  46 SW10G16   29.76S
PLATTEVILLE    SUNNY     68  53  58 SW6       29.79F
$$

WIZ056-057-062-063-064-067-068-281700-
SOUTH CENTRAL WISCONSIN

CITY           SKY/WX    TMP DP  RH WIND       PRES   REMARKS
REEDSBURG      SUNNY     68  53  58 SE6       29.75F
BARABOO/DELLS  SUNNY     66  51  57 CALM      29.75F
LONE ROCK      SUNNY     70  52  52 SW8       29.76F
MINERAL POINT  SUNNY     70  50  49 W8        29.78F
MADISON        PTSUNNY   64  55  72 CALM      29.77S
MIDDLETON      MOSUNNY   65  55  70 CALM      29.78F
WATERTOWN      CLOUDY    60  58  94 CALM      29.77S
MONROE         CLOUDY    63  55  77 CALM      29.78F
JANESVILLE     PTSUNNY   59  59 100 NE9       29.77S
$$

WIZ051-052-058>065-066-070>072-281700-
SOUTHEAST WISCONSIN

CITY           SKY/WX    TMP DP  RH WIND       PRES   REMARKS
MILWAUKEE      LGT RAIN  59  58  96 N8        29.75F FOG
WAUKESHA       LGT RAIN  55  55 100 N5        29.77F
MILWAUKEE/TIMM LGT RAIN  57  54  88 N5        29.77F
RACINE         LGT RAIN  59  58  96 N5        29.76F FOG
KENOSHA        LGT RAIN  61  59  93 CALM      29.75F FOG
FOND DU LAC    CLOUDY    59  54  83 CALM      29.76F
SHEBOYGAN      LGT RAIN  58  57  97 CALM      29.75F
WEST BEND      RAIN      57  55  94 CALM      29.76F
JUNEAU         CLOUDY    58  55  89 CALM      29.77S
$$

LSZ147-162-281700-
LAKE SUPERIOR

STATION/POSITION TIME  TEMP    WIND        PRES    WAVE
                       AIR SEA DIR/SP/G            HT/PER
                 (UTC) (F)     (DEG/KT/KT) (MB)    (FT/S)
W MID LAKE BUOY  1550   47 38  200/  4/  6 1004.8F   0
DEVILS ISLAND    1600   50     270/ 11/ 12 1005.2R
PORT WING        1554   57     150/  9     1005.1R
SAXON HARBOR     1540   55     310/  3/  4 1004.1F
$$

LMZ867-665-643>646-281700-
LAKE MICHIGAN

STATION/POSITION TIME  TEMP    WIND        PRES    WAVE
                       AIR SEA DIR/SP/G            HT/PER
                 (UTC) (F)     (DEG/KT/KT) (MB)    (FT/S)
CHAMBERS ISLAND  1540   57     140/  3/  5 1006.8F
N MID LAKE BUOY  1550   46 41  240/ 10/ 10 1008.0S   0
NORTHPORT PIER   1540   56     300/  4/  7 1007.1F
SISTER BAY       1451   55     250/  7/  8   N/A
KEWAUNEE LAKESHO 1548   57     300/  3/  5 1006.7F
SHEBOYGAN LAKESH 1600   57     300/  3/  4 1007.2F
PORT WASHINGTON  1530   58     340/  2/  5 1008.8F
ATWATER BUOY     1509   52     320/  4/  6 1008.2F
MILWAUKEE LAKESH 1550   57     340/  3/  4   N/A
S MID LAKE BUOY  1550   52 50  360/  8/  8 1008.0S   0
KENOSHA   LAKESH 1600   56      CALM  /  6 1007.5
$$

TC  - TEMPERATURE IN CELSIUS
VSB - VISIBILITY IN STATUTE MILES
WCI - WIND CHILL INDEX
HX  - HEAT INDEX





USA.gov is the U.S. government's official web portal to all federal, state and local government web resources and services.